[[{"header":{"parameterUnit":"m.s-1","parameterCategory":2,"la1":30.2991,"la2":30.254,"lo1":-89.0895,"lo2":-89.0444,"dy":0.0017,"dx":0.0017,"nx":28,"ny":28,"refTime":"2025-05-18T21:00:00:Z","depth":"0","parameterNumber":2,"parameterNumberName":"U-component_of_CURRENTS"},"data":[0,0,0,0,0,0,0,0,0,0,0,0,0,0,0,0,0,0,0,0,0,0,0,0,0,0,0,0,0,0,0,0,0,0,0,0,0,0,0,0,0,0,0,0,0,0,0,0,0,0,0,0,0,0,0,0,0,0,-0.201,-0.201,0,-0.2002,-0.2002,-0.2001,-0.1958,-0.1957,-0.1957,-0.1956,-0.1842,-0.1839,-0.1837,0,0,0,0,0,0,0,0,0,0,0,0,0,-0.1919,-0.1921,-0.201,-0.201,-0.2011,-0.2002,-0.2002,-0.2001,-0.1958,-0.1957,-0.1956,-0.1956,-0.1842,-0.184,-0.1837,0,0,0,0,0,0,0,0,0,0,0,0,0,-0.1936,-0.1922,-0.201,-0.1991,-0.1989,-0.2002,-0.2002,-0.2001,-0.1958,-0.1957,-0.1956,-0.1955,-0.1843,-0.184,-0.1836,-0.1834,0,0,-0.1825,-0.1824,0,0,0,0,0,0,0,0,-0.1935,-0.1939,-0.1994,-0.1992,-0.1991,-0.1983,-0.1928,-0.1941,-0.1959,-0.1966,-0.1956,-0.1955,-0.1882,-0.1876,-0.1872,-0.1829,-0.1824,-0.1825,-0.1823,-0.1821,-0.182,0,0,0,0,0,0,0,-0.1934,-0.1939,-0.2003,-0.1994,-0.1992,-0.1959,-0.1961,-0.193,-0.1925,-0.1965,-0.1963,-0.1969,-0.188,-0.1876,-0.1869,-0.1822,-0.1825,-0.1822,-0.182,-0.1818,-0.1828,-0.1831,0,0,0,0,0,0,-0.1948,-0.1938,-0.2003,-0.2003,-0.1964,-0.1962,-0.1964,-0.1984,-0.1928,-0.192,-0.197,-0.1967,-0.1883,-0.1873,-0.1865,-0.1908,-0.1821,-0.1818,-0.1816,-0.1826,-0.1829,-0.1832,0,0,0,0,0,0,-0.1947,-0.1955,-0.2004,-0.1972,-0.1977,-0.1966,-0.1988,-0.1984,-0.1977,-0.1933,-0.1922,-0.1967,-0.1882,-0.187,-0.1863,-0.1901,-0.1816,-0.1813,-0.1823,-0.1827,-0.183,-0.1962,0,0,0,0,0,0,-0.1944,-0.1955,-0.197,-0.1974,-0.1979,-0.2036,-0.1989,-0.1985,-0.1985,-0.198,-0.1927,-0.1916,-0.188,-0.1869,-0.1859,-0.1894,-0.181,-0.182,-0.1825,-0.1829,-0.1954,-0.197,-0.1982,0,0,0,0,0,-0.1941,-0.1968,-0.1971,-0.1979,-0.2003,-0.2039,-0.2039,-0.2023,-0.1986,-0.2006,-0.197,-0.1917,-0.1891,-0.1868,-0.1856,-0.1891,-0.1818,-0.1824,-0.1829,-0.1948,-0.1967,-0.1982,0,0,0,0,0,0,-0.1919,-0.1966,-0.197,-0.2005,-0.2034,-0.2033,-0.2038,-0.2027,-0.2014,-0.1996,-0.1941,-0.193,-0.1945,-0.1901,-0.1876,-0.1911,-0.1848,-0.1852,-0.1943,-0.196,-0.1974,-0.195,-0.1807,0,0,0,0,0,-0.193,-0.1971,-0.2003,-0.2032,-0.2043,-0.204,-0.2046,-0.2044,-0.2035,-0.2027,-0.1999,-0.1967,-0.196,-0.1945,-0.1933,-0.1938,-0.1866,-0.1957,-0.1971,-0.1983,-0.1958,-0.1887,-0.1891,-0.185,-0.185,-0.185,0,0,-0.1927,-0.1958,-0.1979,-0.2032,-0.2036,-0.2081,-0.2039,-0.206,-0.2094,-0.2015,-0.2038,-0.2015,-0.1976,-0.2001,-0.2001,-0.1963,-0.1968,-0.199,-0.2,-0.1968,-0.1893,-0.1896,-0.1899,-0.1853,-0.1853,-0.1852,0,0,-0.1953,-0.1971,-0.2019,-0.2054,-0.2091,-0.21,-0.2112,-0.2129,-0.2131,-0.2161,-0.212,-0.212,-0.2102,-0.2092,-0.2079,-0.2157,-0.2052,-0.2158,-0.2196,-0.213,-0.2131,-0.2131,-0.2085,-0.208,-0.2156,-0.2156,-0.2156,0,-0.1938,-0.2007,-0.2035,-0.2091,-0.2106,-0.2115,-0.2153,-0.2182,-0.22,-0.2176,-0.2186,-0.2149,-0.2148,-0.2137,-0.2195,-0.2188,-0.2124,-0.2136,-0.2144,-0.2143,-0.214,-0.2092,-0.2085,-0.2163,-0.2162,-0.2162,-0.2161,0,-0.2008,-0.206,-0.2082,-0.2162,-0.2193,-0.2223,-0.2268,-0.2286,-0.2281,-0.2281,-0.2273,-0.2278,-0.2232,-0.227,-0.2266,-0.2257,-0.2212,-0.2177,-0.2094,-0.2152,-0.2099,-0.2089,-0.2173,-0.2171,-0.2169,-0.2167,0,0,-0.1941,-0.2101,-0.2099,-0.2126,-0.2219,-0.2225,-0.2298,-0.2315,-0.2295,-0.2339,-0.2299,-0.236,-0.2316,-0.2301,-0.2292,-0.2272,-0.2267,-0.2229,-0.2222,-0.2171,-0.2115,-0.2041,-0.2022,-0.2214,-0.2212,-0.2211,-0.2098,0,-0.1961,-0.2066,-0.2147,-0.2205,-0.2236,-0.2274,-0.2324,-0.2342,-0.2349,-0.2328,-0.2321,-0.2302,-0.2342,-0.2317,-0.2309,-0.2267,-0.2238,-0.2301,-0.2075,-0.2069,-0.1984,-0.2007,-0.189,-0.1773,-0.2087,-0.2085,-0.2084,0,-0.1971,-0.2034,-0.2117,-0.2178,-0.2187,-0.2232,-0.2218,-0.2268,-0.2272,-0.2269,-0.2246,-0.2235,-0.2238,-0.2256,-0.219,-0.2216,-0.2176,-0.2149,-0.2143,-0.2005,-0.1973,-0.1759,-0.1741,-0.1739,-0.2067,-0.2068,-0.2069,0,-0.1852,-0.1975,-0.2023,-0.2057,-0.2164,-0.2165,-0.2189,-0.2215,-0.2219,-0.2209,-0.2189,-0.217,-0.215,-0.2103,-0.2103,-0.2123,-0.2004,-0.2011,-0.1898,-0.1893,-0.1712,-0.1693,-0.1642,-0.1929,-0.1929,-0.1929,-0.1929,0,-0.1813,-0.1828,-0.1964,-0.1983,-0.1977,-0.2068,-0.2048,-0.2074,-0.21,-0.2072,-0.2128,-0.2096,-0.2106,-0.2061,-0.205,-0.1941,-0.1949,-0.1888,-0.1846,-0.1762,-0.175,-0.1671,-0.1715,-0.1925,-0.1926,-0.1927,-0.1927,0,-0.1682,-0.1798,-0.1828,-0.1921,-0.1939,-0.1915,-0.1973,-0.1953,-0.2004,-0.1972,-0.1969,-0.2013,-0.1951,-0.1947,-0.1872,-0.1853,-0.1733,-0.1726,-0.1647,-0.1597,-0.149,-0.1546,-0.1434,-0.14,-0.1568,-0.1565,-0.1563,0,-0.1641,-0.1657,-0.1741,-0.1745,-0.1788,-0.1792,-0.1798,-0.1879,-0.1869,-0.1909,-0.1869,-0.1846,-0.1767,-0.1657,-0.1621,-0.153,-0.159,-0.1402,-0.1427,-0.145,-0.1482,-0.155,-0.1536,-0.126,-0.1255,-0.1252,-0.1249,0,-0.1523,-0.1556,-0.1583,-0.1597,-0.1608,-0.1609,-0.1622,-0.1609,-0.1687,-0.1653,-0.1583,-0.1528,-0.1475,-0.1343,-0.1299,-0.1255,-0.1371,-0.132,-0.1339,-0.1227,-0.1295,-0.1252,-0.1404,-0.1215,-0.1219,-0.1221,-0.1223,-0.1224,-0.141,-0.1389,-0.1431,-0.1417,-0.1426,-0.1389,-0.1326,-0.1339,-0.1278,-0.1175,-0.1235,-0.1051,-0.1116,-0.1017,-0.0998,-0.0982,-0.1089,-0.0965,-0.103,-0.1096,-0.1063,-0.116,-0.0931,-0.0933,-0.0934,-0.0935,-0.0936,0,-0.1276,-0.1265,-0.1245,-0.1223,-0.1146,-0.1216,-0.1176,-0.1083,-0.0933,-0.0833,-0.0691,-0.0561,-0.0547,-0.0653,-0.074,-0.0717,-0.0741,-0.0734,-0.0804,-0.0802,-0.0846,-0.0832,-0.0575,-0.0575,-0.0575,-0.0575,-0.0575,-0.0575,-0.121,-0.1151,-0.1139,-0.0964,-0.0923,-0.0788,-0.073,-0.0614,-0.0502,-0.0238,-0.0072,0.0023,-0.0245,-0.0558,-0.0656,-0.063,-0.0683,-0.0643,-0.0733,-0.0778,-0.0806,-0.0833,-0.0828,-0.0574,-0.0574,-0.0619,-0.062,-0.062]},{"header":{"parameterUnit":"m.s-1","parameterCategory":2,"la1":30.2991,"la2":30.254,"lo1":-89.0895,"lo2":-89.0444,"dy":0.0017,"dx":0.0017,"nx":28,"ny":28,"refTime":"2025-05-18T21:00:00:Z","depth":"0","parameterNumber":3,"parameterNumberName":"V-component_of_CURRENTS"},"data":[0,0,0,0,0,0,0,0,0,0,0,0,0,0,0,0,0,0,0,0,0,0,0,0,0,0,0,0,0,0,0,0,0,0,0,0,0,0,0,0,0,0,0,0,0,0,0,0,0,0,0,0,0,0,0,0,0,0,0.0231,0.0231,0,0.0275,0.0276,0.0277,0.0313,0.0313,0.0313,0.0313,0.0402,0.0404,0.0406,0,0,0,0,0,0,0,0,0,0,0,0,0,0.0172,0.0173,0.0231,0.0231,0.0231,0.0275,0.0276,0.0277,0.0313,0.0313,0.0313,0.0313,0.0401,0.0404,0.0406,0,0,0,0,0,0,0,0,0,0,0,0,0,0.0207,0.0173,0.0231,0.0253,0.0255,0.0275,0.0276,0.0277,0.0313,0.0313,0.0313,0.0313,0.04,0.0403,0.0407,0.0423,0,0,0.0417,0.0418,0,0,0,0,0,0,0,0,0.0205,0.021,0.0249,0.0251,0.0254,0.0287,0.0288,0.0327,0.0313,0.0293,0.0313,0.0313,0.0366,0.0372,0.0383,0.0427,0.0431,0.0417,0.0419,0.0421,0.0422,0,0,0,0,0,0,0,0.0203,0.0208,0.0251,0.0249,0.0252,0.0258,0.0264,0.0295,0.033,0.0295,0.0297,0.0298,0.0367,0.0379,0.0385,0.0433,0.0417,0.042,0.0422,0.0424,0.0524,0.0525,0,0,0,0,0,0,0.0193,0.0206,0.0249,0.0252,0.0227,0.0259,0.0266,0.0278,0.0329,0.0336,0.0298,0.03,0.0373,0.0381,0.0388,0.0415,0.0421,0.0424,0.0426,0.0523,0.0524,0.0525,0,0,0,0,0,0,0.0191,0.0196,0.0248,0.0227,0.0234,0.026,0.0273,0.0278,0.0287,0.033,0.0339,0.03,0.0374,0.0384,0.0424,0.0418,0.0425,0.0428,0.0523,0.0524,0.0524,0.0465,0,0,0,0,0,0,0.019,0.0196,0.0204,0.0227,0.0234,0.0253,0.0273,0.0279,0.0286,0.0289,0.0336,0.0344,0.0375,0.0419,0.0427,0.0423,0.0431,0.0522,0.0523,0.0524,0.0466,0.0464,0.0462,0,0,0,0,0,0.0188,0.0182,0.0205,0.021,0.0244,0.0252,0.0256,0.0277,0.0286,0.0287,0.0328,0.0343,0.0433,0.0422,0.0432,0.0428,0.0521,0.0523,0.0524,0.0467,0.0464,0.0462,0,0,0,0,0,0,0.0144,0.0186,0.0211,0.0216,0.0234,0.0257,0.0249,0.0271,0.0303,0.0304,0.0352,0.0364,0.0403,0.0426,0.0414,0.0464,0.0479,0.0482,0.0432,0.043,0.0428,0.038,0.0434,0,0,0,0,0,0.0144,0.0166,0.0194,0.02,0.0199,0.0227,0.0233,0.0249,0.0277,0.029,0.0331,0.0374,0.0417,0.043,0.0476,0.0495,0.0502,0.0501,0.0498,0.0496,0.0467,0.0456,0.0449,0.053,0.053,0.053,0,0,0.0132,0.0155,0.0169,0.0195,0.0204,0.0199,0.0231,0.0228,0.0237,0.0295,0.0321,0.0373,0.0425,0.0457,0.0474,0.0472,0.0489,0.0498,0.0495,0.0466,0.0456,0.0448,0.044,0.0531,0.0531,0.053,0,0,0.009,0.013,0.0121,0.0134,0.0147,0.0171,0.0168,0.0195,0.0216,0.0254,0.0301,0.0341,0.0409,0.0436,0.0461,0.0471,0.0488,0.0495,0.043,0.0421,0.0413,0.0405,0.0446,0.0443,0.0481,0.048,0.048,0,0.0063,0.0065,0.0115,0.0097,0.0095,0.0153,0.0123,0.016,0.0207,0.021,0.0255,0.0336,0.0394,0.0405,0.0423,0.0461,0.0472,0.0432,0.0413,0.0406,0.0399,0.0442,0.0439,0.0478,0.0478,0.0478,0.0479,0,0.0016,0.0011,-0.0006,0.0009,0.002,0.0003,0.0051,0.0073,0.0118,0.0151,0.0186,0.0269,0.0303,0.0344,0.0393,0.0377,0.041,0.0418,0.0407,0.0386,0.0436,0.0433,0.0474,0.0475,0.0476,0.0476,0,0,-0.0048,-0.0042,-0.005,-0.0069,-0.0034,-0.004,-0.0021,-0.0008,-0.0012,0.006,0.0051,0.0148,0.0183,0.0213,0.0277,0.0279,0.0287,0.0324,0.0325,0.0343,0.0294,0.0365,0.0371,0.028,0.0278,0.0277,0.0361,0,-0.0116,-0.0174,-0.0139,-0.0187,-0.0222,-0.0163,-0.0151,-0.012,-0.0067,-0.0046,0.0022,0.0061,0.0137,0.0163,0.0173,0.0265,0.0271,0.0265,0.0329,0.0331,0.0377,0.0366,0.0426,0.0508,0.0359,0.0359,0.0359,0,-0.0187,-0.0215,-0.0282,-0.0303,-0.0314,-0.0313,-0.0304,-0.0283,-0.0231,-0.0194,-0.0161,-0.0087,-0.004,0.0026,0.0114,0.0104,0.0183,0.0248,0.0253,0.0324,0.0396,0.0499,0.051,0.064,0.0355,0.0356,0.0356,0,-0.0272,-0.0321,-0.0378,-0.0382,-0.0383,-0.0399,-0.0386,-0.0342,-0.0336,-0.0285,-0.0271,-0.0212,-0.0151,-0.0089,0.0088,0.0087,0.019,0.0205,0.0336,0.0345,0.041,0.0426,0.0527,0.0226,0.0226,0.0226,0.0226,0,-0.0361,-0.041,-0.0423,-0.0454,-0.0514,-0.0481,-0.0519,-0.0488,-0.0457,-0.0449,-0.0355,-0.0304,-0.0181,-0.008,0.0038,0.0201,0.0151,0.0315,0.0354,0.04,0.0414,0.0542,0.0583,0.0229,0.0229,0.0228,0.0227,0,-0.044,-0.0452,-0.0519,-0.0545,-0.0556,-0.0591,-0.0597,-0.0619,-0.0568,-0.055,-0.0535,-0.0382,-0.0224,-0.009,0.0067,0.0167,0.0387,0.0361,0.044,0.0485,0.0709,0.0745,0.0838,0.0936,0.0495,0.0497,0.0499,0,-0.0478,-0.0523,-0.0582,-0.0617,-0.0628,-0.0671,-0.0699,-0.0677,-0.0688,-0.0566,-0.0563,-0.0393,-0.0201,0.0064,0.0227,0.0416,0.0499,0.0571,0.0564,0.0721,0.0789,0.0795,0.0871,0.0656,0.0659,0.0661,0.0663,0,-0.0543,-0.0561,-0.0608,-0.0681,-0.0729,-0.0784,-0.0814,-0.0835,-0.078,-0.07,-0.0499,-0.0312,-0.0035,0.026,0.0467,0.0572,0.0676,0.0624,0.0746,0.088,0.0929,0.1045,0.0639,0.0683,0.0681,0.068,0.0679,0.0678,-0.0567,-0.0614,-0.0666,-0.0727,-0.0791,-0.0846,-0.0855,-0.0839,-0.0779,-0.0573,-0.0409,-0.0025,0.0319,0.0657,0.0745,0.0926,0.0866,0.1009,0.1033,0.102,0.1122,0.0784,0.089,0.0889,0.0888,0.0888,0.0887,0,-0.0587,-0.0633,-0.0702,-0.0768,-0.082,-0.0851,-0.0889,-0.0831,-0.0688,-0.0443,-0.0143,0.0449,0.0773,0.0998,0.121,0.1337,0.1348,0.1394,0.1414,0.147,0.1146,0.1162,0.138,0.138,0.1379,0.1379,0.1379,0.1379,-0.0597,-0.0661,-0.0693,-0.0756,-0.0795,-0.0815,-0.0811,-0.0676,-0.05,-0.0025,0.0386,0.074,0.1106,0.1434,0.166,0.1683,0.1816,0.1775,0.1848,0.1628,0.1593,0.156,0.1587,0.189,0.189,0.2184,0.2187,0.2189]}],[{"header":{"parameterUnit":"m.s-1","parameterCategory":2,"la1":30.2991,"la2":30.254,"lo1":-89.0895,"lo2":-89.0444,"dy":0.0017,"dx":0.0017,"nx":28,"ny":28,"refTime":"2025-05-18T21:00:00:Z","depth":"2","parameterNumber":2,"parameterNumberName":"U-component_of_CURRENTS"},"data":[0,0,0,0,0,0,0,0,0,0,0,0,0,0,0,0,0,0,0,0,0,0,0,0,0,0,0,0,0,0,0,0,0,0,0,0,0,0,0,0,0,0,0,0,0,0,0,0,0,0,0,0,0,0,0,0,0,0,-0.2209,-0.2215,0,-0.2446,-0.2446,-0.2446,-0.2466,-0.2467,-0.2468,-0.2469,-0.2422,-0.242,-0.2418,0,0,0,0,0,0,0,0,0,0,0,0,0,-0.1794,-0.1798,-0.2209,-0.2215,-0.2222,-0.2447,-0.2446,-0.2446,-0.2466,-0.2467,-0.2469,-0.247,-0.2423,-0.242,-0.2417,0,0,0,0,0,0,0,0,0,0,0,0,0,-0.1961,-0.1799,-0.2208,-0.2287,-0.2299,-0.2447,-0.2446,-0.2446,-0.2466,-0.2467,-0.2469,-0.247,-0.2423,-0.242,-0.2417,-0.2369,0,0,-0.2407,-0.2406,0,0,0,0,0,0,0,0,-0.1951,-0.1971,-0.2269,-0.2282,-0.2297,-0.2462,-0.2285,-0.2419,-0.2466,-0.2362,-0.2469,-0.2471,-0.2432,-0.2429,-0.242,-0.2367,-0.2365,-0.2407,-0.2405,-0.2404,-0.2403,0,0,0,0,0,0,0,-0.1939,-0.1962,-0.2264,-0.2277,-0.2294,-0.2321,-0.2341,-0.2309,-0.2352,-0.2372,-0.2383,-0.247,-0.2433,-0.2423,-0.2419,-0.2364,-0.2407,-0.2404,-0.2402,-0.2401,-0.2373,-0.2374,0,0,0,0,0,0,-0.1985,-0.1951,-0.2258,-0.2275,-0.2167,-0.233,-0.2351,-0.2376,-0.2359,-0.2371,-0.2468,-0.2471,-0.2428,-0.2423,-0.2417,-0.2375,-0.2404,-0.2401,-0.2399,-0.2372,-0.2373,-0.2375,0,0,0,0,0,0,-0.1973,-0.2007,-0.2249,-0.2152,-0.219,-0.2339,-0.2365,-0.2381,-0.2409,-0.2443,-0.2441,-0.2491,-0.2429,-0.2422,-0.2429,-0.2373,-0.2399,-0.2396,-0.237,-0.2372,-0.2374,-0.2281,0,0,0,0,0,0,-0.1959,-0.1999,-0.1991,-0.2153,-0.2199,-0.2358,-0.2369,-0.2386,-0.2478,-0.2481,-0.246,-0.2456,-0.2429,-0.2434,-0.2426,-0.2369,-0.2394,-0.2369,-0.2371,-0.2373,-0.2282,-0.2279,-0.2276,0,0,0,0,0,-0.1941,-0.1956,-0.1986,-0.2026,-0.2193,-0.2364,-0.2383,-0.247,-0.2478,-0.2492,-0.249,-0.2458,-0.2442,-0.2432,-0.2422,-0.2363,-0.2368,-0.2371,-0.2373,-0.2284,-0.228,-0.2276,0,0,0,0,0,0,-0.1796,-0.1969,-0.2004,-0.2073,-0.2221,-0.2383,-0.2427,-0.2485,-0.2491,-0.2493,-0.247,-0.2466,-0.2461,-0.2446,-0.2437,-0.2375,-0.24,-0.24,-0.2335,-0.2331,-0.2328,-0.2309,-0.2391,0,0,0,0,0,-0.1762,-0.1786,-0.1996,-0.2046,-0.213,-0.2269,-0.234,-0.2422,-0.2495,-0.25,-0.2481,-0.2469,-0.2457,-0.2426,-0.243,-0.2373,-0.2371,-0.2339,-0.2336,-0.2333,-0.2319,-0.2305,-0.2297,-0.2383,-0.2383,-0.2383,0,0,-0.1736,-0.1827,-0.185,-0.2014,-0.2122,-0.2208,-0.2304,-0.2451,-0.2454,-0.2489,-0.2437,-0.2474,-0.2459,-0.2417,-0.2407,-0.2389,-0.2308,-0.2336,-0.2332,-0.232,-0.2306,-0.2297,-0.2289,-0.2385,-0.2385,-0.2384,0,0,-0.1708,-0.1773,-0.1794,-0.1899,-0.2102,-0.2191,-0.2245,-0.241,-0.241,-0.2432,-0.2447,-0.245,-0.2425,-0.2378,-0.2355,-0.2337,-0.2326,-0.2359,-0.2268,-0.2254,-0.2245,-0.2238,-0.2208,-0.2198,-0.2313,-0.2313,-0.2313,0,-0.1669,-0.1721,-0.1837,-0.1895,-0.199,-0.2178,-0.2252,-0.2267,-0.2387,-0.239,-0.2415,-0.2412,-0.2383,-0.2314,-0.2302,-0.2314,-0.2331,-0.2266,-0.2243,-0.2236,-0.2229,-0.2201,-0.2192,-0.2309,-0.231,-0.231,-0.231,0,-0.1668,-0.1711,-0.1757,-0.1847,-0.1937,-0.2063,-0.217,-0.2203,-0.2253,-0.2289,-0.2294,-0.2282,-0.2282,-0.2263,-0.2258,-0.2197,-0.2233,-0.2268,-0.2234,-0.2214,-0.2187,-0.2179,-0.2303,-0.2305,-0.2306,-0.2307,0,0,-0.162,-0.1729,-0.1747,-0.1784,-0.1944,-0.2042,-0.2035,-0.2127,-0.2137,-0.2172,-0.216,-0.2112,-0.2167,-0.2149,-0.215,-0.21,-0.2037,-0.2153,-0.2155,-0.2091,-0.2016,-0.1938,-0.1922,-0.2088,-0.2087,-0.2086,-0.2009,0,-0.1613,-0.1676,-0.1729,-0.1799,-0.1876,-0.1991,-0.1969,-0.2041,-0.209,-0.2099,-0.2089,-0.2092,-0.2096,-0.2114,-0.2064,-0.2084,-0.2017,-0.2055,-0.2076,-0.2075,-0.198,-0.1909,-0.1771,-0.1684,-0.2,-0.1999,-0.1998,0,-0.1619,-0.1661,-0.1717,-0.1801,-0.1847,-0.1875,-0.196,-0.197,-0.2001,-0.2033,-0.2046,-0.2082,-0.2011,-0.2038,-0.1977,-0.2022,-0.2,-0.1992,-0.199,-0.1941,-0.198,-0.1764,-0.1657,-0.1984,-0.1985,-0.1986,-0.1987,0,-0.1575,-0.1668,-0.1703,-0.1739,-0.1839,-0.1852,-0.1904,-0.1958,-0.1965,-0.1997,-0.2034,-0.2008,-0.1996,-0.1977,-0.1946,-0.1981,-0.1898,-0.1941,-0.1834,-0.1829,-0.1721,-0.1708,-0.1873,-0.1874,-0.1874,-0.1874,-0.1874,0,-0.1572,-0.1605,-0.1681,-0.1706,-0.1735,-0.1819,-0.1845,-0.1889,-0.1938,-0.1948,-0.1992,-0.1985,-0.1991,-0.1958,-0.1936,-0.1841,-0.1878,-0.1789,-0.179,-0.1686,-0.1672,-0.1957,-0.1968,-0.1871,-0.1872,-0.1872,-0.1873,0,-0.1517,-0.1576,-0.1613,-0.1693,-0.1713,-0.173,-0.1804,-0.1821,-0.1888,-0.1902,-0.191,-0.1952,-0.19,-0.1881,-0.1835,-0.1803,-0.174,-0.1695,-0.156,-0.1545,-0.1686,-0.1693,-0.1564,-0.156,-0.1557,-0.1554,-0.1552,0,-0.1487,-0.1502,-0.157,-0.1576,-0.1605,-0.1646,-0.1668,-0.1766,-0.1792,-0.1866,-0.1859,-0.1841,-0.1788,-0.1687,-0.1609,-0.1515,-0.1615,-0.1372,-0.1381,-0.1632,-0.1647,-0.166,-0.1672,-0.1203,-0.1198,-0.1195,-0.1191,0,-0.1412,-0.1434,-0.1456,-0.1472,-0.1494,-0.1521,-0.1569,-0.1587,-0.1695,-0.1718,-0.1733,-0.1701,-0.1598,-0.1432,-0.132,-0.1265,-0.138,-0.1286,-0.1567,-0.1309,-0.1287,-0.1305,-0.1329,-0.1156,-0.1159,-0.1162,-0.1164,-0.1165,-0.1331,-0.132,-0.1345,-0.1349,-0.1375,-0.138,-0.1368,-0.1423,-0.1442,-0.1462,-0.156,-0.1479,-0.1439,-0.1172,-0.1072,-0.0987,-0.109,-0.1074,-0.1088,-0.1107,-0.1084,-0.1058,-0.0879,-0.0881,-0.0882,-0.0884,-0.0885,0,-0.1227,-0.1226,-0.1221,-0.1226,-0.1207,-0.1261,-0.1286,-0.1255,-0.1228,-0.1262,-0.1276,-0.115,-0.1007,-0.0945,-0.0731,-0.0691,-0.0707,-0.0683,-0.0714,-0.0748,-0.0779,-0.0743,-0.0445,-0.0444,-0.0443,-0.0442,0,0,-0.1172,-0.113,-0.1129,-0.1059,-0.106,-0.1004,-0.0995,-0.0961,-0.0961,-0.0893,-0.0869,-0.1003,-0.0949,-0.0746,-0.0659,-0.0508,-0.0637,-0.0478,-0.0826,-0.0898,-0.0928,-0.0988,-0.0968,0,0,0,0,0]},{"header":{"parameterUnit":"m.s-1","parameterCategory":2,"la1":30.2991,"la2":30.254,"lo1":-89.0895,"lo2":-89.0444,"dy":0.0017,"dx":0.0017,"nx":28,"ny":28,"refTime":"2025-05-18T21:00:00:Z","depth":"2","parameterNumber":3,"parameterNumberName":"V-component_of_CURRENTS"},"data":[0,0,0,0,0,0,0,0,0,0,0,0,0,0,0,0,0,0,0,0,0,0,0,0,0,0,0,0,0,0,0,0,0,0,0,0,0,0,0,0,0,0,0,0,0,0,0,0,0,0,0,0,0,0,0,0,0,0,-0.0087,-0.0084,0,0.0121,0.0123,0.0124,0.0197,0.0198,0.0198,0.0198,0.0367,0.0371,0.0375,0,0,0,0,0,0,0,0,0,0,0,0,0,-0.018,-0.0181,-0.0087,-0.0084,-0.008,0.0121,0.0123,0.0124,0.0197,0.0198,0.0198,0.0198,0.0366,0.037,0.0375,0,0,0,0,0,0,0,0,0,0,0,0,0,-0.0085,-0.0182,-0.0088,-0.001,-0.0,0.0121,0.0123,0.0125,0.0197,0.0198,0.0198,0.0199,0.0364,0.037,0.0376,0.0404,0,0,0.0395,0.0398,0,0,0,0,0,0,0,0,-0.0091,-0.0084,-0.0025,-0.0015,-0.0004,0.0145,0.0153,0.022,0.0197,0.0109,0.0198,0.0199,0.0297,0.0309,0.0329,0.0412,0.0419,0.0396,0.04,0.0402,0.0404,0,0,0,0,0,0,0,-0.0098,-0.009,-0.0018,-0.0021,-0.0008,0.0099,0.0109,0.0166,0.0187,0.0117,0.0126,0.0169,0.0301,0.0323,0.0334,0.0421,0.0396,0.0401,0.0405,0.0407,0.0578,0.0579,0,0,0,0,0,0,-0.0112,-0.0099,-0.0024,-0.001,-0.0033,0.01,0.0111,0.0086,0.0187,0.0207,0.0168,0.0171,0.0312,0.0326,0.034,0.0349,0.0402,0.0408,0.0412,0.0577,0.0578,0.0579,0,0,0,0,0,0,-0.0117,-0.0111,-0.0032,-0.0034,-0.0016,0.01,0.0073,0.009,0.012,0.0229,0.0246,0.0182,0.0313,0.0331,0.0402,0.0357,0.0411,0.0416,0.0576,0.0578,0.0579,0.0386,0,0,0,0,0,0,-0.0122,-0.0116,-0.0147,-0.0039,-0.0016,0.0025,0.0074,0.0095,0.0152,0.0158,0.0246,0.0262,0.0315,0.0393,0.0408,0.0367,0.0421,0.0575,0.0577,0.0578,0.0392,0.0381,0.0372,0,0,0,0,0,-0.0127,-0.0165,-0.0152,-0.014,-0.0063,0.0026,0.0045,0.0125,0.0152,0.0153,0.0229,0.026,0.0413,0.0398,0.0417,0.0376,0.0575,0.0577,0.0578,0.0396,0.0383,0.0372,0,0,0,0,0,0,-0.0199,-0.0157,-0.014,-0.0161,-0.0079,0.0043,0.0067,0.012,0.018,0.0191,0.0273,0.0294,0.0343,0.0404,0.0386,0.0439,0.0498,0.0504,0.0354,0.0342,0.0332,0.0309,0.0426,0,0,0,0,0,-0.0236,-0.0275,-0.018,-0.0192,-0.0158,-0.0051,-0.0005,0.0054,0.0137,0.0164,0.0224,0.0301,0.0364,0.0388,0.0462,0.0484,0.0542,0.0477,0.0466,0.0457,0.0457,0.0511,0.0504,0.0585,0.0585,0.0585,0,0,-0.0251,-0.024,-0.0251,-0.0211,-0.0144,-0.0109,-0.0027,0.0044,0.0059,0.0174,0.0194,0.0275,0.0373,0.0401,0.0425,0.0439,0.0463,0.0459,0.0449,0.0455,0.0512,0.0503,0.0496,0.0586,0.0586,0.0586,0,0,-0.0293,-0.0306,-0.0341,-0.0296,-0.0207,-0.0142,-0.0127,-0.0019,0.0005,0.0064,0.0141,0.019,0.0295,0.0327,0.0366,0.035,0.0421,0.0384,0.0287,0.0338,0.033,0.0324,0.0361,0.036,0.0359,0.0358,0.0358,0,-0.031,-0.0355,-0.0321,-0.0329,-0.0283,-0.0169,-0.0151,-0.0116,-0.0004,0.0025,0.0053,0.0203,0.025,0.0288,0.0266,0.0315,0.0373,0.0307,0.0317,0.0313,0.031,0.035,0.0351,0.0349,0.035,0.0351,0.0352,0,-0.0365,-0.0392,-0.0394,-0.0395,-0.0352,-0.0307,-0.0236,-0.0205,-0.0146,-0.0087,-0.002,0.0054,0.0147,0.0148,0.0192,0.0195,0.0251,0.0302,0.0326,0.0289,0.0335,0.0339,0.0336,0.034,0.0342,0.0345,0,0,-0.0399,-0.0432,-0.0428,-0.0438,-0.0376,-0.0336,-0.0326,-0.0257,-0.0232,-0.0164,-0.0127,-0.0074,-0.001,0.004,0.0093,0.0101,0.0083,0.0173,0.018,0.017,0.0199,0.0231,0.024,0.0143,0.0143,0.0144,0.0227,0,-0.0429,-0.0484,-0.0479,-0.0484,-0.0484,-0.0406,-0.0404,-0.034,-0.0272,-0.0222,-0.0153,-0.009,-0.0059,-0.0021,-0.001,0.009,0.0094,0.0056,0.0273,0.0279,0.028,0.0245,0.0245,0.0321,0.0233,0.0233,0.0234,0,-0.0468,-0.0502,-0.0536,-0.0537,-0.0524,-0.0515,-0.0451,-0.0432,-0.0348,-0.0297,-0.0223,-0.0137,-0.0109,-0.0074,0.0032,0.0019,0.0086,0.0144,0.015,0.0255,0.032,0.0357,0.0334,0.0243,0.0242,0.0242,0.0241,0,-0.0503,-0.0528,-0.0564,-0.0562,-0.0551,-0.0545,-0.0517,-0.0446,-0.0425,-0.0338,-0.0291,-0.0203,-0.0149,-0.0059,0.0052,0.0054,0.0183,0.0211,0.0301,0.0304,0.0385,0.0395,0.0277,0.0277,0.0277,0.0277,0.0276,0,-0.0539,-0.056,-0.0588,-0.0608,-0.0625,-0.0593,-0.0584,-0.054,-0.0475,-0.0436,-0.0337,-0.027,-0.0139,-0.0035,0.0052,0.0192,0.0191,0.0281,0.0328,0.0319,0.0322,0.0334,0.0339,0.028,0.0279,0.0278,0.0278,0,-0.0574,-0.0596,-0.0639,-0.0651,-0.0654,-0.0664,-0.0643,-0.063,-0.056,-0.0504,-0.0477,-0.0319,-0.0172,-0.0042,0.012,0.0199,0.0321,0.0371,0.0342,0.0383,0.0405,0.04,0.0474,0.0476,0.0478,0.0479,0.048,0,-0.0605,-0.0637,-0.0682,-0.0709,-0.0719,-0.0731,-0.0735,-0.0682,-0.0658,-0.0519,-0.0489,-0.0325,-0.0171,0.0075,0.0228,0.0394,0.038,0.048,0.0468,0.0386,0.0425,0.0417,0.0411,0.0494,0.0495,0.0496,0.0496,0,-0.0649,-0.0667,-0.0703,-0.077,-0.0795,-0.0816,-0.0811,-0.0808,-0.072,-0.0644,-0.0485,-0.0341,-0.0071,0.0155,0.0361,0.0449,0.045,0.0505,0.0451,0.0439,0.041,0.0446,0.0438,0.0504,0.0504,0.0503,0.0503,0.0502,-0.0671,-0.071,-0.0765,-0.0819,-0.0854,-0.088,-0.0891,-0.0852,-0.0797,-0.0647,-0.0487,-0.0236,-0.0029,0.0301,0.0438,0.0549,0.0545,0.0575,0.057,0.0565,0.0547,0.0522,0.0633,0.0633,0.0633,0.0633,0.0633,0,-0.0695,-0.0744,-0.0807,-0.0868,-0.0908,-0.0916,-0.0922,-0.0895,-0.0818,-0.0608,-0.0415,-0.015,0.0124,0.0318,0.0524,0.0643,0.0615,0.0643,0.0594,0.0587,0.058,0.056,0.0652,0.0652,0.0652,0.0652,0,0,-0.0711,-0.0778,-0.0816,-0.0894,-0.0933,-0.0954,-0.0957,-0.0896,-0.0747,-0.0541,-0.0332,-0.0073,0.0191,0.0318,0.0468,0.0585,0.055,0.0581,0.0561,0.0482,0.0474,0.0542,0.0505,0,0,0,0,0]}],[{"header":{"parameterUnit":"m.s-1","parameterCategory":2,"la1":30.2991,"la2":30.254,"lo1":-89.0895,"lo2":-89.0444,"dy":0.0017,"dx":0.0017,"nx":28,"ny":28,"refTime":"2025-05-18T21:00:00:Z","depth":"4","parameterNumber":2,"parameterNumberName":"U-component_of_CURRENTS"},"data":[0,0,0,0,0,0,0,0,0,0,0,0,0,0,0,0,0,0,0,0,0,0,0,0,0,0,0,0,0,0,0,0,0,0,0,0,0,0,0,0,0,0,0,0,0,0,0,0,0,0,0,0,0,0,0,0,0,0,-0.109,-0.1089,0,-0.1097,-0.1097,-0.1098,-0.1109,-0.1109,-0.1108,-0.1108,-0.1187,-0.1189,-0.1192,0,0,0,0,0,0,0,0,0,0,0,0,0,-0.1113,-0.1113,-0.109,-0.1089,-0.1089,-0.1097,-0.1097,-0.1098,-0.1109,-0.1109,-0.1108,-0.1108,-0.1186,-0.1189,-0.1192,0,0,0,0,0,0,0,0,0,0,0,0,0,-0.1115,-0.1112,-0.109,-0.1091,-0.1091,-0.1096,-0.1097,-0.1098,-0.1109,-0.1109,-0.1108,-0.1108,-0.1185,-0.1189,-0.1192,-0.1224,0,0,-0.1203,-0.1205,0,0,0,0,0,0,0,0,-0.1115,-0.1115,-0.1091,-0.1091,-0.1091,-0.1096,-0.1134,-0.1142,-0.1109,-0.1108,-0.1108,-0.1108,-0.116,-0.1165,-0.1175,-0.1228,-0.1231,-0.1203,-0.1206,-0.1207,-0.1208,0,0,0,0,0,0,0,-0.1115,-0.1115,-0.1098,-0.1091,-0.109,-0.11,-0.11,-0.1136,-0.1143,-0.1108,-0.1108,-0.11,-0.1161,-0.1172,-0.1177,-0.1232,-0.1203,-0.1207,-0.1209,-0.121,-0.1341,-0.1343,0,0,0,0,0,0,-0.1101,-0.1114,-0.1098,-0.1098,-0.1095,-0.1099,-0.11,-0.11,-0.1141,-0.1144,-0.11,-0.11,-0.1166,-0.1173,-0.118,-0.1257,-0.1207,-0.1211,-0.1213,-0.134,-0.1342,-0.1343,0,0,0,0,0,0,-0.1102,-0.11,-0.1098,-0.1101,-0.1101,-0.1099,-0.1099,-0.11,-0.1118,-0.1132,-0.1138,-0.1116,-0.1166,-0.1175,-0.1219,-0.1258,-0.1212,-0.1215,-0.1339,-0.1341,-0.1343,-0.1387,0,0,0,0,0,0,-0.1103,-0.1101,-0.111,-0.1101,-0.11,-0.1099,-0.1099,-0.11,-0.111,-0.1111,-0.1148,-0.1154,-0.1166,-0.1214,-0.1223,-0.1263,-0.1218,-0.1337,-0.134,-0.1342,-0.1384,-0.139,-0.1396,0,0,0,0,0,-0.1104,-0.111,-0.1111,-0.1109,-0.1108,-0.1098,-0.11,-0.1101,-0.1111,-0.1117,-0.1149,-0.1154,-0.1236,-0.1218,-0.1228,-0.127,-0.1336,-0.1339,-0.1342,-0.1381,-0.1389,-0.1396,0,0,0,0,0,0,-0.1121,-0.111,-0.1112,-0.1114,-0.1106,-0.1098,-0.1105,-0.1109,-0.114,-0.1152,-0.1172,-0.118,-0.1232,-0.1244,-0.1223,-0.1314,-0.1287,-0.1292,-0.1314,-0.1321,-0.1327,-0.133,-0.1221,0,0,0,0,0,-0.1129,-0.1135,-0.1119,-0.1122,-0.1119,-0.1119,-0.1121,-0.1122,-0.1136,-0.1149,-0.1173,-0.121,-0.1253,-0.1279,-0.1307,-0.1362,-0.1351,-0.1395,-0.1401,-0.1406,-0.1414,-0.1431,-0.1439,-0.1353,-0.1353,-0.1353,0,0,-0.1136,-0.1131,-0.1134,-0.1127,-0.1126,-0.1136,-0.1121,-0.1124,-0.1153,-0.1156,-0.121,-0.1229,-0.1269,-0.1324,-0.135,-0.1342,-0.142,-0.141,-0.1414,-0.142,-0.1435,-0.1443,-0.145,-0.1355,-0.1355,-0.1354,0,0,-0.1141,-0.1148,-0.1151,-0.1152,-0.1146,-0.1153,-0.1156,-0.1157,-0.1178,-0.1224,-0.1238,-0.1276,-0.1339,-0.137,-0.1399,-0.1457,-0.1445,-0.1472,-0.1516,-0.1532,-0.1539,-0.1545,-0.152,-0.1524,-0.1482,-0.1482,-0.1482,0,-0.1151,-0.1154,-0.115,-0.1154,-0.1166,-0.1165,-0.118,-0.1205,-0.1225,-0.1256,-0.1247,-0.1342,-0.1364,-0.1447,-0.1466,-0.1473,-0.1464,-0.1486,-0.1539,-0.1545,-0.155,-0.1524,-0.1528,-0.1485,-0.1485,-0.1484,-0.1484,0,-0.115,-0.1166,-0.1167,-0.1184,-0.1202,-0.121,-0.1236,-0.127,-0.13,-0.1321,-0.1393,-0.1418,-0.1473,-0.149,-0.1503,-0.1566,-0.1539,-0.1537,-0.1518,-0.1562,-0.1531,-0.1534,-0.1488,-0.1488,-0.1487,-0.1486,0,0,-0.1138,-0.1163,-0.1167,-0.1193,-0.1221,-0.1238,-0.1301,-0.1351,-0.1404,-0.1432,-0.1492,-0.156,-0.156,-0.1591,-0.1604,-0.1624,-0.1644,-0.1604,-0.1604,-0.1574,-0.1653,-0.1521,-0.151,-0.1654,-0.1655,-0.1656,-0.1608,0,-0.1138,-0.1162,-0.1182,-0.1234,-0.1253,-0.1298,-0.1359,-0.1417,-0.1463,-0.1517,-0.1557,-0.1609,-0.1605,-0.163,-0.1653,-0.1648,-0.1658,-0.1656,-0.1621,-0.1619,-0.1492,-0.1512,-0.1661,-0.161,-0.161,-0.1611,-0.1611,0,-0.1128,-0.1151,-0.1192,-0.1275,-0.129,-0.1334,-0.1443,-0.1494,-0.1575,-0.1609,-0.1662,-0.1677,-0.1723,-0.1699,-0.1718,-0.1717,-0.1694,-0.1679,-0.1677,-0.1542,-0.1492,-0.1564,-0.1615,-0.1615,-0.1615,-0.1614,-0.1614,0,-0.1116,-0.117,-0.1212,-0.1232,-0.1314,-0.1371,-0.1431,-0.1524,-0.1574,-0.1658,-0.1685,-0.1741,-0.1753,-0.1757,-0.1719,-0.1728,-0.1706,-0.171,-0.1566,-0.1555,-0.1669,-0.1663,-0.1719,-0.1719,-0.1719,-0.1719,-0.1719,0,-0.11,-0.114,-0.1214,-0.1233,-0.1308,-0.1379,-0.1466,-0.1534,-0.1617,-0.1659,-0.1722,-0.1738,-0.177,-0.1755,-0.173,-0.1636,-0.1712,-0.1569,-0.154,-0.1685,-0.1682,-0.1669,-0.1664,-0.1717,-0.1718,-0.1718,-0.1718,0,-0.1065,-0.1109,-0.1162,-0.1258,-0.1294,-0.135,-0.1463,-0.1513,-0.1607,-0.1657,-0.1679,-0.1735,-0.1701,-0.1696,-0.1674,-0.1621,-0.1565,-0.1514,-0.164,-0.1619,-0.1401,-0.14,-0.1356,-0.1351,-0.1347,-0.1343,-0.1341,0,-0.1038,-0.1058,-0.1159,-0.1186,-0.1227,-0.1316,-0.1366,-0.1486,-0.1526,-0.1631,-0.1631,-0.1641,-0.1651,-0.1504,-0.1521,-0.1444,-0.1429,-0.1401,-0.1434,-0.1391,-0.1368,-0.1373,-0.1376,-0.1334,-0.1333,-0.1332,-0.1331,0,-0.0981,-0.1026,-0.1064,-0.1118,-0.1174,-0.1232,-0.1312,-0.1331,-0.1451,-0.1552,-0.1535,-0.151,-0.1455,-0.141,-0.1344,-0.1303,-0.1427,-0.1357,-0.1366,-0.1397,-0.1364,-0.1346,-0.1354,-0.1316,-0.1318,-0.1319,-0.132,0,-0.0931,-0.0942,-0.0991,-0.1032,-0.1095,-0.1116,-0.1178,-0.1216,-0.1272,-0.1398,-0.138,-0.1389,-0.1436,-0.1333,-0.1282,-0.1214,-0.1205,-0.1191,-0.1209,-0.1225,-0.1202,-0.1142,-0.0997,0,0,0,0,0,-0.0868,-0.087,-0.0898,-0.0935,-0.0994,-0.1027,-0.1123,-0.1185,-0.1303,-0.1253,-0.1318,-0.1263,-0.1193,-0.12,-0.1095,-0.12,-0.1195,-0.1076,-0.1188,-0.1235,-0.1252,-0.1236,0,0,0,0,0,0,-0.0824,-0.0847,-0.086,-0.084,-0.0845,-0.0896,-0.0947,-0.1027,-0.1013,-0.1132,-0.1086,-0.1187,-0.1114,-0.1211,-0.1065,-0.1064,-0.111,-0.1094,-0.1091,-0.1226,-0.1241,-0.1255,-0.1244,0,0,0,0,0]},{"header":{"parameterUnit":"m.s-1","parameterCategory":2,"la1":30.2991,"la2":30.254,"lo1":-89.0895,"lo2":-89.0444,"dy":0.0017,"dx":0.0017,"nx":28,"ny":28,"refTime":"2025-05-18T21:00:00:Z","depth":"4","parameterNumber":3,"parameterNumberName":"V-component_of_CURRENTS"},"data":[0,0,0,0,0,0,0,0,0,0,0,0,0,0,0,0,0,0,0,0,0,0,0,0,0,0,0,0,0,0,0,0,0,0,0,0,0,0,0,0,0,0,0,0,0,0,0,0,0,0,0,0,0,0,0,0,0,0,-0.0238,-0.0238,0,-0.0245,-0.0245,-0.0245,-0.0242,-0.0242,-0.0242,-0.0242,-0.0203,-0.0202,-0.0201,0,0,0,0,0,0,0,0,0,0,0,0,0,-0.0178,-0.018,-0.0238,-0.0238,-0.0238,-0.0245,-0.0245,-0.0245,-0.0242,-0.0242,-0.0242,-0.0242,-0.0203,-0.0202,-0.0201,0,0,0,0,0,0,0,0,0,0,0,0,0,-0.0197,-0.018,-0.0238,-0.0238,-0.0238,-0.0245,-0.0245,-0.0245,-0.0242,-0.0242,-0.0242,-0.0242,-0.0204,-0.0202,-0.0201,-0.0197,0,0,-0.0197,-0.0196,0,0,0,0,0,0,0,0,-0.0196,-0.0199,-0.0237,-0.0238,-0.0238,-0.0243,-0.021,-0.0227,-0.0242,-0.024,-0.0242,-0.0242,-0.0213,-0.0211,-0.0212,-0.0195,-0.0193,-0.0197,-0.0196,-0.0195,-0.0195,0,0,0,0,0,0,0,-0.0194,-0.0198,-0.024,-0.0238,-0.0238,-0.0223,-0.0226,-0.0213,-0.0226,-0.024,-0.024,-0.0242,-0.0212,-0.0214,-0.0211,-0.0193,-0.0197,-0.0196,-0.0195,-0.0194,-0.018,-0.018,0,0,0,0,0,0,-0.0197,-0.0197,-0.024,-0.024,-0.0216,-0.0224,-0.0227,-0.0241,-0.0227,-0.0226,-0.0242,-0.0242,-0.0216,-0.0213,-0.021,-0.0192,-0.0196,-0.0194,-0.0193,-0.0179,-0.018,-0.018,0,0,0,0,0,0,-0.0196,-0.0201,-0.024,-0.0218,-0.0222,-0.0226,-0.0241,-0.0241,-0.0247,-0.0229,-0.0226,-0.0247,-0.0216,-0.0212,-0.0203,-0.0191,-0.0194,-0.0192,-0.0179,-0.0179,-0.018,-0.0164,0,0,0,0,0,0,-0.0195,-0.0201,-0.0218,-0.0219,-0.0224,-0.0256,-0.0242,-0.0242,-0.0248,-0.0248,-0.0233,-0.0229,-0.0215,-0.0205,-0.0201,-0.0189,-0.0191,-0.0178,-0.0179,-0.018,-0.0164,-0.0164,-0.0164,0,0,0,0,0,-0.0193,-0.0217,-0.0219,-0.0224,-0.0245,-0.0257,-0.0258,-0.0258,-0.0248,-0.026,-0.0242,-0.023,-0.0207,-0.0204,-0.02,-0.0187,-0.0178,-0.0179,-0.018,-0.0164,-0.0164,-0.0164,0,0,0,0,0,0,-0.02,-0.0219,-0.0221,-0.0251,-0.0258,-0.0256,-0.0266,-0.0262,-0.0258,-0.0253,-0.0232,-0.0228,-0.0218,-0.0211,-0.0208,-0.0189,-0.0192,-0.0192,-0.0181,-0.0181,-0.0181,-0.0164,-0.019,0,0,0,0,0,-0.021,-0.0237,-0.0243,-0.0269,-0.0269,-0.0267,-0.0272,-0.0272,-0.0266,-0.0264,-0.0253,-0.0237,-0.0219,-0.0207,-0.0201,-0.0186,-0.0156,-0.0178,-0.0178,-0.0178,-0.0163,-0.01,-0.0092,-0.0183,-0.0183,-0.0183,0,0,-0.022,-0.0235,-0.025,-0.0273,-0.0273,-0.0278,-0.0269,-0.028,-0.0277,-0.0259,-0.0254,-0.0241,-0.0218,-0.0203,-0.0198,-0.0193,-0.0142,-0.0179,-0.0179,-0.0164,-0.01,-0.0091,-0.0083,-0.0184,-0.0184,-0.0184,0,0,-0.0248,-0.0264,-0.029,-0.0293,-0.0302,-0.0296,-0.0299,-0.03,-0.0293,-0.0292,-0.0269,-0.0241,-0.0238,-0.0199,-0.0181,-0.0177,-0.015,-0.019,-0.0163,-0.0103,-0.0094,-0.0085,-0.0053,-0.0042,-0.0182,-0.0182,-0.0182,0,-0.0257,-0.0291,-0.0298,-0.0313,-0.0312,-0.0302,-0.0311,-0.0302,-0.0301,-0.028,-0.0294,-0.0241,-0.0225,-0.0163,-0.0165,-0.017,-0.0148,-0.016,-0.0099,-0.009,-0.0081,-0.005,-0.0038,-0.0182,-0.0182,-0.0182,-0.0182,0,-0.0297,-0.0318,-0.0328,-0.0342,-0.0343,-0.0351,-0.0332,-0.0326,-0.0316,-0.0296,-0.0254,-0.0226,-0.0187,-0.0181,-0.0171,-0.0102,-0.0111,-0.0109,-0.009,-0.007,-0.0041,-0.0028,-0.0181,-0.0181,-0.0181,-0.0181,0,0,-0.032,-0.0352,-0.0353,-0.0362,-0.0356,-0.0361,-0.034,-0.0312,-0.0285,-0.027,-0.0225,-0.0181,-0.0156,-0.0133,-0.0108,-0.0052,0.0019,-0.0058,-0.0055,-0.0012,0.0133,0.0108,0.0119,0.0033,0.0035,0.0037,0.0125,0,-0.0344,-0.0386,-0.0385,-0.04,-0.0411,-0.038,-0.0362,-0.033,-0.0297,-0.0255,-0.0187,-0.0151,-0.0139,-0.012,-0.0056,-0.0008,0.0055,-0.0006,0.0095,0.0098,0.0086,0.0134,0.0045,0.0134,0.0137,0.0139,0.0141,0,-0.0374,-0.0398,-0.0429,-0.0427,-0.0424,-0.0427,-0.0379,-0.0362,-0.0281,-0.0252,-0.0179,-0.0137,-0.0046,-0.005,0.0082,0.0038,0.0091,0.0134,0.0138,0.0124,0.0097,0.0112,0.0164,0.0162,0.016,0.0159,0.0157,0,-0.0395,-0.0418,-0.0449,-0.0451,-0.0448,-0.0441,-0.0427,-0.0362,-0.0336,-0.0247,-0.0214,-0.0103,-0.0055,0.0038,0.0119,0.0104,0.0256,0.0246,0.0282,0.028,0.0269,0.026,0.036,0.036,0.036,0.036,0.036,0,-0.0418,-0.0438,-0.0467,-0.0484,-0.0497,-0.0475,-0.0462,-0.0423,-0.0357,-0.0311,-0.0219,-0.0152,-0.003,0.0067,0.0138,0.0245,0.0276,0.0306,0.0315,0.0267,0.0257,0.0277,0.0266,0.0363,0.0362,0.0362,0.0361,0,-0.0439,-0.0463,-0.0499,-0.0513,-0.0519,-0.0529,-0.0512,-0.0491,-0.0423,-0.0357,-0.033,-0.0182,-0.0053,0.0062,0.0216,0.0263,0.0366,0.0399,0.033,0.033,0.0343,0.0331,0.0455,0.0455,0.0455,0.0455,0.0455,0,-0.0457,-0.0484,-0.0534,-0.0561,-0.0575,-0.0586,-0.0589,-0.0537,-0.0505,-0.0369,-0.0332,-0.0184,-0.0083,0.0117,0.0234,0.0378,0.0394,0.0437,0.041,0.0363,0.036,0.0348,0.0337,0.0455,0.0455,0.0455,0.0455,0,-0.048,-0.0507,-0.054,-0.0604,-0.0631,-0.0646,-0.064,-0.0622,-0.0535,-0.0476,-0.032,-0.0185,-0.0031,0.0124,0.0235,0.0339,0.0401,0.0438,0.0439,0.0414,0.0366,0.0359,0.0348,0.0456,0.0456,0.0456,0.0456,0,-0.0493,-0.0527,-0.0583,-0.0629,-0.0672,-0.0685,-0.068,-0.0623,-0.0578,-0.0425,-0.0371,-0.0181,-0.0062,0.0107,0.0214,0.0307,0.0328,0.034,0.0346,0.0347,0.0282,0.0203,0.0273,0,0,0,0,0,-0.0499,-0.0543,-0.0599,-0.065,-0.0693,-0.071,-0.0698,-0.0676,-0.0595,-0.0498,-0.0431,-0.0281,-0.0068,0.0045,0.0133,0.0194,0.0321,0.0298,0.0331,0.0458,0.0458,0.0398,0,0,0,0,0,0,-0.0505,-0.0565,-0.06,-0.0654,-0.0689,-0.072,-0.0715,-0.0663,-0.0597,-0.0501,-0.0387,-0.0281,-0.0082,-0.0126,0.0129,0.0165,0.0192,0.0411,0.0413,0.0459,0.0458,0.0458,0.0396,0,0,0,0,0]}]]